TimePST,TemperatureF,Dew PointF,Humidity,Sea Level PressureIn,VisibilityMPH,Wind Direction,Wind SpeedMPH,Gust SpeedMPH,PrecipitationIn,Events,Conditions,WindDirDegrees,DateUTC
12:56 AM,50.0,39.0,66,30.34,9.0,South,4.6,-,N/A,,Partly Cloudy,180,2013-12-24 08:56:00
1:56 AM,46.9,37.9,71,30.34,9.0,Calm,Calm,-,N/A,,Partly Cloudy,0,2013-12-24 09:56:00
2:56 AM,48.0,39.9,74,30.34,8.0,Calm,Calm,-,N/A,,Partly Cloudy,0,2013-12-24 10:56:00
3:56 AM,48.9,37.9,66,30.33,8.0,Calm,Calm,-,N/A,,Partly Cloudy,0,2013-12-24 11:56:00
4:56 AM,46.0,37.9,73,30.32,9.0,Calm,Calm,-,N/A,,Partly Cloudy,0,2013-12-24 12:56:00
5:56 AM,46.0,37.9,73,30.31,9.0,Calm,Calm,-,N/A,,Partly Cloudy,0,2013-12-24 13:56:00
6:56 AM,48.0,39.0,71,30.31,9.0,Calm,Calm,-,N/A,,Scattered Clouds,0,2013-12-24 14:56:00
7:56 AM,46.9,39.9,77,30.31,8.0,Calm,Calm,-,N/A,,Mostly Cloudy,0,2013-12-24 15:56:00
8:56 AM,51.1,41.0,68,30.32,8.0,Calm,Calm,-,N/A,,Partly Cloudy,0,2013-12-24 16:56:00
9:56 AM,52.0,41.0,66,30.32,8.0,NE,3.5,-,N/A,,Partly Cloudy,50,2013-12-24 17:56:00
10:56 AM,54.0,43.0,66,30.31,8.0,Calm,Calm,-,N/A,,Partly Cloudy,0,2013-12-24 18:56:00
11:56 AM,55.0,44.1,67,30.27,8.0,NE,3.5,-,N/A,,Partly Cloudy,40,2013-12-24 19:56:00
12:56 PM,55.9,45.0,67,30.25,9.0,Calm,Calm,-,N/A,,Mostly Cloudy,0,2013-12-24 20:56:00
1:56 PM,57.9,46.0,65,30.22,10.0,Calm,Calm,-,N/A,,Scattered Clouds,0,2013-12-24 21:56:00
2:56 PM,55.9,46.9,72,30.22,10.0,NNE,6.9,-,N/A,,Scattered Clouds,20,2013-12-24 22:56:00
3:56 PM,57.0,45.0,64,30.22,10.0,North,5.8,-,N/A,,Scattered Clouds,360,2013-12-24 23:56:00
4:56 PM,57.0,43.0,59,30.21,10.0,NNW,5.8,-,N/A,,Scattered Clouds,330,2013-12-25 00:56:00
5:56 PM,57.9,39.9,51,30.21,10.0,WNW,5.8,-,N/A,,Partly Cloudy,300,2013-12-25 01:56:00
6:56 PM,54.0,42.1,64,30.21,10.0,SSW,4.6,-,N/A,,Clear,200,2013-12-25 02:56:00
7:56 PM,54.0,42.1,64,30.22,10.0,Calm,Calm,-,N/A,,Clear,0,2013-12-25 03:56:00
8:56 PM,51.1,39.0,63,30.23,10.0,SW,3.5,-,N/A,,Clear,230,2013-12-25 04:56:00
9:56 PM,51.1,39.0,63,30.24,10.0,West,4.6,-,N/A,,Clear,270,2013-12-25 05:56:00
10:56 PM,51.1,37.9,61,30.25,10.0,West,4.6,-,N/A,,Clear,270,2013-12-25 06:56:00
11:56 PM,51.1,39.9,66,30.25,10.0,Calm,Calm,-,N/A,,Clear,0,2013-12-25 07:56:00